Hourly Data Report for October 06, 2014

All times are specified in Local Standard Time (LST). Add 1 hour to adjust for Daylight Saving Time where and when it is observed.

FREDERICTON
NEW BRUNSWICK

45°52'08.000" N
66°32'14.000" W
20.70 m
8101505
71700
YFC

Download Data

Hourly Data (October 2014)
Hourly Data Report for October 6, 2014
Temp Definition
°C
Dew Point Temp Definition
°C
Rel Hum Definition
%
Wind Dir Definition
10's deg

Wind Spd Definition
km/h
Visibility Definition
km
Stn Press Definition
kPa
Hmdx Definition


Wind Chill Definition


Weather Definition


TIME
00:00 Legend Double Dagger 7.8 7.7 99 21 8 12.9 100.85     LegendNANA
01:00 Legend Double Dagger 6.5 6.4 99 25 5 16.1 100.94     LegendNANA
02:00 Legend Double Dagger 5.7 5.6 99 20 11 16.1 101.03     LegendNANA
03:00 Legend Double Dagger 5.1 5.0 99 18 8 16.1 101.11     LegendNANA
04:00 Legend Double Dagger 3.6 3.6 100 20 8 9.7 101.16     Fog
05:00 Legend Double Dagger 3.1 3.1 100 18 8 12.9 101.24     LegendNANA
06:00 Legend Double Dagger 2.9 2.9 100 18 8 16.1 101.34     LegendNANA
07:00 Legend Double Dagger 2.8 2.8 100 22 5 16.1 101.45     LegendNANA
08:00 Legend Double Dagger 4.6 4.2 97 20 5 16.1 101.51     LegendNANA
09:00 Legend Double Dagger 7.4 6.0 91 21 5 16.1 101.59     LegendNANA
10:00 Legend Double Dagger 10.9 7.9 82 LegendMM 4 16.1 101.63     LegendNANA
11:00 Legend Double Dagger 13.5 7.4 66   0 16.1 101.65     LegendNANA
12:00 Legend Double Dagger 15.0 6.8 58 23 13 16.1 101.67     LegendNANA
13:00 Legend Double Dagger 16.5 6.1 50 18 9 16.1 101.65     LegendNANA
14:00 Legend Double Dagger 16.2 5.2 48 25 15 16.1 101.65     LegendNANA
15:00 Legend Double Dagger 16.2 5.1 47 22 13 16.1 101.67     LegendNANA
16:00 Legend Double Dagger 17.1 5.1 45 18 15 16.1 101.69     LegendNANA
17:00 Legend Double Dagger 15.1 5.9 54 19 13 16.1 101.75     LegendNANA
18:00 Legend Double Dagger 12.5 7.0 69 17 9 16.1 101.79     LegendNANA
19:00 Legend Double Dagger 10.9 7.0 77 16 8 16.1 101.86     LegendNANA
20:00 Legend Double Dagger 8.8 6.1 83 17 8 16.1 101.92     LegendNANA
21:00 Legend Double Dagger 6.7 5.4 91 18 11 16.1 102.00     LegendNANA
22:00 Legend Double Dagger 6.4 6.0 97 20 9 16.1 102.06     LegendNANA
23:00 Legend Double Dagger 5.8 5.7 99 20 5 11.3 102.12     LegendNANA

Notes on Data Quality.

Legend

  • E = Estimated
  • M = Missing
  • NA = Not Available
  • ‡ = Partner data that is not subject to review by the National Climate Archives
Date modified: